This is the latest recevied weather packets stored in our database for station/object G8PZT. If no packets are shown the sender has not sent any weather packets the latest 10 day(s).
| Time | Temp. | Humidity | Pressure | Rain* | Wind** | Luminosity | Snow |
|---|---|---|---|---|---|---|---|
| 1777192803 | 10.56° C | 41% | - | 0 mm | - | - | - |
| 1777192563 | 10.56° C | 40% | - | 0 mm | - | - | - |
| 1777191963 | 11.11° C | 42% | - | 0 mm | - | - | - |
| 1777191603 | 10.56° C | 42% | - | 0 mm | - | - | - |
| 1777191364 | 10.56° C | 42% | - | 0 mm | - | - | - |
| 1777190764 | 10° C | 48% | - | 0 mm | - | - | - |
| 1777190164 | 8.89° C | 52% | - | 0 mm | - | - | - |
| 1777189564 | 8.89° C | 51% | - | 0 mm | - | - | - |
| 1777189202 | 8.89° C | 53% | - | 0 mm | - | - | - |
| 1777188964 | 8.33° C | 54% | - | 0 mm | - | - | - |
| 1777188364 | 7.78° C | 55% | - | 0 mm | - | - | - |
| 1777187764 | 8.33° C | 58% | - | 0 mm | - | - | - |
| 1777187164 | 7.78° C | 62% | - | 0 mm | - | - | - |
| 1777186564 | 7.22° C | 65% | - | 0 mm | - | - | - |
| 1777185964 | 6.67° C | 70% | - | 0 mm | - | - | - |
| 1777185603 | 6.67° C | 73% | - | 0 mm | - | - | - |
| 1777185364 | 6.67° C | 75% | - | 0 mm | - | - | - |
| 1777184764 | 6.67° C | 76% | - | 0 mm | - | - | - |
| 1777184164 | 6.11° C | 75% | - | 0 mm | - | - | - |
| 1777183563 | 5.56° C | 75% | - | 0 mm | - | - | - |
| 1777182964 | 5.56° C | 75% | - | 0 mm | - | - | - |
| 1777182364 | 5° C | 74% | - | 0 mm | - | - | - |
| 1777182002 | 5° C | 74% | - | 0 mm | - | - | - |
| 1777181764 | 5° C | 74% | - | 0 mm | - | - | - |
| 1777181164 | 3.89° C | 73% | - | 0 mm | - | - | - |
* Rain latest hour (hover to see other rain measurements)
** Current wind speed in m/s (hover to see current wind gust speed)